Home > Weather > Tangier > Past weeks

Flag for Morocco Weather for the Past 2 Weeks in Tangier, Morocco

Now
63 °F

Partly cloudy.


Feels Like: 63 °F
Forecast: N/A
Wind: 18 mph from West

Location: Tanger Aerodrome

Current Time: Feb 13, 2016 at 9:26:55 PM

Latest Report: Feb 13, 2016 at 9:00 PM


Visibility: 5 mi

Pressure: 30.15 "Hg

Humidity: 77%

Dew point: 55 °F

Location of TangierLocation

Historic Weather in Tangier — Graph

°F

Tangier Temperature Yesterday

Maximum temperature yesterday: 66 °F (at 12:00 PM)
Minimum temperature yesterday: 59 °F (at 4:00 AM)
Average temperature yesterday: 62 °F

High & Low Weather Summary for the Past Weeks

 TemperatureHumidityPressure
High70 °F (Feb 1, 12:30 PM)94% (Jan 30, 9:00 AM)30.60 "Hg (Jan 30, 9:00 AM)
Low43 °F (Feb 1, 7:30 AM)40% (Feb 1, 12:00 PM)30.12 "Hg (Feb 13, 3:30 AM)
Average58 °F80%30.33 "Hg
* Reported Jan 29 8:00 PM — Feb 13 8:00 PM, Tangier, Weather by CustomWeather, © 2016

Note: Actual official high and low records may vary slightly from our data, if they occured in-between our weather recording intervals... More about our weather records

Advertising

Tangier Weather History for the Previous 24 Hours

 ConditionsComfort  
Time TempWeatherWind HumidityBarometerVisibility
8:00 PM
Sat, Feb 13
63 °FPartly cloudy.18 mph77%30.15 "Hg5 mi
7:30 PM63 °FPartly cloudy.17 mph77%30.15 "Hg5 mi
7:00 PM63 °FPartly cloudy.20 mph73%30.15 "Hg5 mi
6:30 PM63 °FPartly cloudy.18 mph77%30.12 "HgN/A
6:00 PM63 °FPartly cloudy.18 mph73%30.12 "HgN/A
5:30 PM63 °FPartly cloudy.18 mph77%30.12 "HgN/A
5:00 PM63 °FBroken clouds.16 mph83%30.12 "HgN/A
4:30 PM63 °FBroken clouds.18 mph83%30.12 "HgN/A
4:00 PM63 °FBroken clouds.18 mph77%30.12 "HgN/A
3:30 PM63 °FBroken clouds.18 mph77%30.12 "HgN/A
3:00 PM64 °FBroken clouds.20 mph78%30.12 "HgN/A
2:30 PM64 °FBroken clouds.18 mph78%30.15 "Hg5 mi
2:00 PM63 °FBroken clouds.18 mph83%30.15 "Hg5 mi
1:30 PM61 °FRain. Broken clouds.14 mph88%30.15 "Hg3 mi
1:00 PM61 °FRain. Broken clouds.15 mph88%30.15 "Hg3 mi
12:30 PM61 °FBroken clouds.17 mph88%30.18 "Hg4 mi
12:00 PM63 °FBroken clouds.16 mph77%30.18 "Hg5 mi
11:30 AM64 °FBroken clouds.17 mph73%30.18 "Hg5 mi
11:00 AM63 °FBroken clouds.22 mph77%30.18 "Hg5 mi
10:30 AM63 °FBroken clouds.20 mph77%30.18 "Hg5 mi
10:00 AM63 °FBroken clouds.16 mph77%30.18 "Hg5 mi
9:30 AM63 °FBroken clouds.16 mph77%30.18 "Hg5 mi
9:00 AM63 °FBroken clouds.14 mph83%30.15 "Hg5 mi
8:30 AM61 °FBroken clouds.13 mph88%30.15 "Hg5 mi
8:00 AM61 °FBroken clouds.12 mph88%30.15 "Hg5 mi
7:30 AM61 °FBroken clouds.14 mph94%30.15 "Hg5 mi
7:00 AM61 °FBroken clouds.13 mph94%30.15 "Hg5 mi
6:30 AM61 °FBroken clouds.12 mph94%30.12 "HgN/A
6:00 AM61 °FPartly cloudy.14 mph94%30.12 "Hg4 mi
5:30 AM61 °FPartly cloudy.15 mph94%30.12 "HgN/A
5:00 AM61 °FPartly cloudy.15 mph94%30.12 "Hg4 mi
4:30 AM61 °FCool.15 mph94%30.12 "Hg2 mi
4:00 AM61 °FLight rain. Partly cloudy.14 mph94%30.12 "Hg2 mi
3:30 AM61 °FLight rain. Partly cloudy.17 mph94%30.12 "Hg2 mi
3:00 AM61 °FLight rain. Partly cloudy.14 mph94%30.15 "Hg2 mi
2:30 AM63 °FLight rain. Partly cloudy.16 mph94%30.15 "Hg2 mi
2:00 AM63 °FLight rain. Partly cloudy.17 mph94%30.15 "Hg2 mi
1:30 AM63 °FFog.18 mph94%30.15 "Hg2 mi
1:00 AM63 °FLight rain. Fog.18 mph94%30.15 "Hg2 mi
12:30 AM63 °FLight rain. Fog.17 mph94%30.15 "Hg1 mi
12:00 AM63 °FLight rain. Fog.18 mph88%30.15 "Hg1 mi
11:00 PM
Fri, Feb 12
61 °FLight rain. Fog.17 mph94%30.18 "Hg1 mi
10:30 PM61 °FLight rain. Fog.17 mph94%30.18 "Hg2 mi
10:00 PM61 °FLight rain. Fog.18 mph94%30.18 "Hg2 mi
9:30 PM61 °FLight rain. Partly cloudy.16 mph94%30.18 "Hg3 mi
9:00 PM61 °FLight rain. Fog.15 mph94%30.18 "Hg2 mi
Weather by CustomWeather, © 2016

See weather overviewHow to use our weather pages